[Date Prev][Date Next][Thread Prev][Thread Next] - [Date Index][Thread Index][Author Index]

3 Line ISS Keps 1-9



ISS
1 25544U 98067A   04009.15585500  .00017229  00000-0  17262-3 0  9938
2 25544  51.6282  60.0341 0008585  22.1745  80.7494 15.65615838293214


----
Via the sarex mailing list at AMSAT.ORG courtesy of AMSAT-NA.
To unsubscribe, send "unsubscribe sarex" to Majordomo@amsat.org



AMSAT Top AMSAT Home